DW3929 Weather Reports


Display with metric or nautical units.
time (UTC)temp
F
wind
direction
speed
MPH
gust
MPH
rain 1hr
in
rain 24hr
in
rain mn
in
humidity
%
barometer
mb
20180821191822 99 228 0.0 5.0 0.00 0.00 0.00 40 1016.8
20180821191330 99 191 0.0 12.0 0.00 0.00 0.00 44 1016.9
20180821190817 99 198 2.0 13.0 0.00 0.00 0.00 43 1017.1
20180821190329 98 124 0.0 5.0 0.00 0.00 0.00 46 1017.0
20180821185816 98 22 0.0 0.0 0.00 0.00 0.00 45 1017.1
20180821185324 98 28 0.0 0.0 0.00 0.00 0.00 43 1017.1
20180821184816 98 146 0.0 5.0 0.00 0.00 0.00 43 1017.2
20180821184327 99 136 0.0 11.0 0.00 0.00 0.00 44 1017.4
20180821183835 99 165 0.0 11.0 0.00 0.00 0.00 42 1017.4
20180821183324 99 153 0.0 8.0 0.00 0.00 0.00 43 1017.4
20180821182831 99 153 2.0 7.0 0.00 0.00 0.00 43 1017.5
20180821182319 99 103 0.0 4.0 0.00 0.00 0.00 42 1017.5
20180821181830 99 131 0.0 0.0 0.00 0.00 0.00 44 1017.6
20180821181321 98 273 0.0 0.0 0.00 0.00 0.00 47 1017.6
20180821180829 98 194 0.0 9.0 0.00 0.00 0.00 44 1017.7
20180821180325 98 186 1.0 9.0 0.00 0.00 0.00 45 1017.8
20180821175832 97 126 2.0 9.0 0.00 0.00 0.00 44 1017.7
20180821175320 98 146 5.0 10.0 0.00 0.00 0.00 45 1017.7
20180821174828 97 159 8.0 10.0 0.00 0.00 0.00 46 1017.8
20180821174319 97 117 0.0 11.0 0.00 0.00 0.00 44 1017.7
20180821173827 97 126 6.0 11.0 0.00 0.00 0.00 46 1017.9
20180821173336 97 166 1.0 7.0 0.00 0.00 0.00 47 1017.9
20180821172824 96 193 5.0 7.0 0.00 0.00 0.00 50 1017.9
20180821172332 96 175 0.0 7.0 0.00 0.00 0.00 48 1018.0
20180821171825 96 175 0.0 8.0 0.00 0.00 0.00 49 1018.1
20180821171336 96 153 1.0 13.0 0.00 0.00 0.00 49 1018.2
20180821170823 96 150 3.0 13.0 0.00 0.00 0.00 48 1018.3
20180821170332 96 173 0.0 5.0 0.00 0.00 0.00 48 1018.3
20180821165819 96 192 0.0 11.0 0.00 0.00 0.00 50 1018.4
20180821165326 95 160 2.0 11.0 0.00 0.00 0.00 49 1018.5
20180821164835 95 231 0.0 8.0 0.00 0.00 0.00 52 1018.4
20180821164322 95 227 0.0 10.0 0.00 0.00 0.00 53 1018.5
20180821163830 95 207 2.0 10.0 0.00 0.00 0.00 54 1018.5
20180821163323 94 222 2.0 9.0 0.00 0.00 0.00 53 1018.6
20180821162831 94 176 1.0 10.0 0.00 0.00 0.00 55 1018.7
20180821162322 94 150 2.0 10.0 0.00 0.00 0.00 56 1018.7
20180821161830 93 74 0.0 9.0 0.00 0.00 0.00 57 1018.7
20180821161318 93 194 0.0 9.0 0.00 0.00 0.00 58 1018.8
20180821160825 92 192 1.0 7.0 0.00 0.00 0.00 57 1018.8
20180821160334 92 156 3.0 9.0 0.00 0.00 0.00 58 1018.8
20180821155822 92 150 2.0 9.0 0.00 0.00 0.00 60 1018.9
20180821155329 91 201 0.0 8.0 0.00 0.00 0.00 61 1018.9
20180821154822 91 165 0.0 4.0 0.00 0.00 0.00 62 1018.8
20180821154329 90 235 0.0 8.0 0.00 0.00 0.00 64 1018.9
20180821153816 90 213 1.0 8.0 0.00 0.00 0.00 65 1018.9
20180821153325 90 194 2.0 8.0 0.00 0.00 0.00 64 1018.9
20180821152832 89 217 2.0 7.0 0.00 0.00 0.00 65 1019.0
20180821152320 89 217 1.0 7.0 0.00 0.00 0.00 65 1018.9
20180821151828 88 257 0.0 7.0 0.00 0.00 0.00 69 1018.8
20180821151315 88 278 1.0 8.0 0.00 0.00 0.00 69 1018.9
20180821150825 87 227 2.0 12.0 0.00 0.00 0.00 69 1018.9
20180821150319 86 263 3.0 13.0 0.00 0.00 0.00 72 1018.9
20180821145827 86 180 5.0 13.0 0.00 0.00 0.00 73 1018.9
20180821145334 86 150 6.0 12.0 0.00 0.00 0.00 74 1018.8
20180821144822 85 151 3.0 9.0 0.00 0.00 0.00 75 1018.7
20180821144330 85 209 0.0 9.0 0.00 0.00 0.00 76 1018.6
20180821143821 84 208 3.0 12.0 0.00 0.00 0.00 77 1018.6
20180821143330 84 160 5.0 12.0 0.00 0.00 0.00 77 1018.6
20180821142820 83 160 4.0 10.0 0.00 0.00 0.00 79 1018.5
20180821142328 83 157 5.0 10.0 0.00 0.00 0.00 81 1018.6
20180821141820 83 199 2.0 9.0 0.00 0.00 0.00 81 1018.6
20180821141329 82 229 1.0 10.0 0.00 0.00 0.00 82 1018.7
20180821140836 82 214 5.0 7.0 0.00 0.00 0.00 84 1018.7
20180821140325 81 197 2.0 6.0 0.00 0.00 0.00 85 1018.6
20180821135833 81 225 1.0 7.0 0.00 0.00 0.00 86 1018.6
20180821135320 80 177 0.0 7.0 0.00 0.00 0.00 87 1018.5
20180821134828 80 242 1.0 7.0 0.00 0.00 0.00 87 1018.5
20180821134316 79 240 0.0 0.0 0.00 0.00 0.00 87 1018.5
20180821133824 79 255 0.0 0.0 0.00 0.00 0.00 86 1018.6
20180821133317 78 163 0.0 0.0 0.00 0.00 0.00 86 1018.5
20180821132824 78 157 0.0 0.0 0.00 0.00 0.00 85 1018.5
20180821132333 77 157 0.0 0.0 0.00 0.00 0.00 85 1018.5
20180821131824 77 157 0.0 0.0 0.00 0.00 0.00 85 1018.4
20180821131331 76 157 0.0 0.0 0.00 0.00 0.00 85 1018.3
20180821130819 76 157 0.0 0.0 0.00 0.00 0.00 86 1018.3
20180821130328 76 157 0.0 0.0 0.00 0.00 0.00 86 1018.3
20180821125836 76 157 0.0 0.0 0.00 0.00 0.00 87 1018.2
20180821125324 76 157 0.0 0.0 0.00 0.00 0.00 87 1018.2
20180821124836 76 157 0.0 0.0 0.00 0.00 0.00 87 1018.2
20180821124323 76 157 0.0 0.0 0.00 0.00 0.00 87 1018.2
20180821123831 76 157 0.0 0.0 0.00 0.00 0.00 87 1018.1
20180821123320 75 157 0.0 0.0 0.00 0.00 0.00 87 1018.0
20180821122828 75 157 0.0 0.0 0.00 0.00 0.00 87 1018.0
20180821122336 75 157 0.0 0.0 0.00 0.00 0.00 87 1017.9
20180821121825 75 157 0.0 0.0 0.00 0.00 0.00 87 1017.8
20180821121333 75 157 0.0 0.0 0.00 0.00 0.00 87 1017.8
20180821120820 76 157 0.0 0.0 0.00 0.00 0.00 87 1017.7
20180821120335 76 157 0.0 0.0 0.00 0.00 0.00 87 1017.7
20180821115823 76 157 0.0 0.0 0.00 0.00 0.00 87 1017.6
20180821115330 76 157 0.0 0.0 0.00 0.00 0.00 87 1017.5
20180821114821 76 157 0.0 0.0 0.00 0.00 0.00 87 1017.4
20180821114329 76 157 0.0 0.0 0.00 0.00 0.00 87 1017.4
20180821113819 76 157 0.0 0.0 0.00 0.00 0.00 87 1017.3
20180821113329 76 157 0.0 0.0 0.00 0.00 0.00 87 1017.3
20180821112816 76 157 0.0 0.0 0.00 0.00 0.00 87 1017.2
20180821112327 76 157 0.0 0.0 0.00 0.00 0.00 87 1017.3
20180821111819 76 157 0.0 0.0 0.00 0.00 0.00 87 1017.2
20180821111327 77 157 0.0 0.0 0.00 0.00 0.00 87 1017.2
20180821110835 77 157 0.0 0.0 0.00 0.00 0.00 87 1017.2
20180821110324 77 157 0.0 0.0 0.00 0.00 0.00 87 1017.2
20180821105831 77 157 0.0 0.0 0.00 0.00 0.00 87 1017.1
20180821105319 77 157 0.0 0.0 0.00 0.00 0.00 87 1017.2
20180821104827 77 157 0.0 0.0 0.00 0.00 0.00 87 1017.2
20180821104335 77 157 0.0 0.0 0.00 0.00 0.00 87 1017.1
20180821103823 77 157 0.0 0.0 0.00 0.00 0.00 87 1017.0
20180821103336 77 157 0.0 0.0 0.00 0.00 0.00 87 1017.0
20180821102823 77 157 0.0 0.0 0.00 0.00 0.00 87 1017.0
20180821102331 77 157 0.0 0.0 0.00 0.00 0.00 87 1017.0
20180821101819 77 157 0.0 0.0 0.00 0.00 0.00 87 1017.0
20180821101330 77 157 0.0 0.0 0.00 0.00 0.00 86 1016.9
20180821100819 77 157 0.0 0.0 0.00 0.00 0.00 86 1016.9
20180821100327 77 157 0.0 0.0 0.00 0.00 0.00 86 1016.8
20180821095836 77 157 0.0 0.0 0.00 0.00 0.00 87 1016.8
20180821095324 77 157 0.0 0.0 0.00 0.00 0.00 86 1016.9
20180821094835 77 157 0.0 0.0 0.00 0.00 0.00 86 1016.9
20180821094323 77 157 0.0 0.0 0.00 0.00 0.00 86 1016.9
20180821093835 77 157 0.0 0.0 0.00 0.00 0.00 86 1016.9
20180821093323 77 157 0.0 0.0 0.00 0.00 0.00 86 1016.9
20180821092831 77 157 0.0 0.0 0.00 0.00 0.00 86 1016.8
20180821092319 77 157 0.0 0.0 0.00 0.00 0.00 86 1016.8
20180821091832 77 157 0.0 0.0 0.00 0.00 0.00 85 1016.8
20180821091317 77 157 0.0 0.0 0.00 0.00 0.00 86 1016.8
20180821090825 77 157 0.0 0.0 0.00 0.00 0.00 85 1016.8
20180821090318 78 157 0.0 0.0 0.00 0.00 0.00 85 1016.9
20180821085826 78 157 0.0 0.0 0.00 0.00 0.00 85 1016.9
20180821085334 78 157 0.0 0.0 0.00 0.00 0.00 85 1016.9
20180821084821 78 157 0.0 0.0 0.00 0.00 0.00 85 1016.9
20180821084329 78 157 0.0 0.0 0.00 0.00 0.00 85 1016.9
20180821083817 78 157 0.0 0.0 0.00 0.00 0.00 85 1017.0
20180821083326 78 157 0.0 0.0 0.00 0.00 0.00 85 1016.9
20180821082835 78 157 0.0 0.0 0.00 0.00 0.00 85 1016.9
20180821082323 78 157 0.0 0.0 0.00 0.00 0.00 84 1016.8
20180821081815 78 157 0.0 0.0 0.00 0.00 0.00 84 1016.8
20180821081325 78 157 0.0 0.0 0.00 0.00 0.00 84 1016.8
20180821080834 78 157 0.0 0.0 0.00 0.00 0.00 84 1016.7
20180821080322 79 157 0.0 0.0 0.00 0.00 0.00 84 1016.7
20180821075830 79 157 0.0 0.0 0.00 0.00 0.00 84 1016.8
20180821075318 79 157 0.0 0.0 0.00 0.00 0.00 83 1016.7
20180821074826 79 157 0.0 0.0 0.00 0.00 0.00 83 1016.7
20180821074334 79 157 0.0 0.0 0.00 0.00 0.00 83 1016.8
20180821073821 79 157 0.0 0.0 0.00 0.00 0.00 83 1016.7
20180821073315 79 157 0.0 0.0 0.00 0.00 0.00 82 1016.7
20180821072826 79 157 0.0 4.0 0.00 0.00 0.00 82 1016.7
20180821072313 80 157 0.0 4.0 0.00 0.00 0.00 82 1016.7
20180821071824 80 157 0.0 0.0 0.00 0.00 0.00 82 1016.7
20180821071332 80 157 0.0 0.0 0.00 0.00 0.00 82 1016.6
20180821070820 80 159 0.0 2.0 0.00 0.00 0.00 82 1016.6
20180821070329 80 159 0.0 2.0 0.00 0.00 0.00 81 1016.6
20180821065816 80 159 0.0 0.0 0.00 0.00 0.00 81 1016.5
20180821065327 80 159 0.0 0.0 0.00 0.00 0.00 81 1016.5
20180821064819 80 159 0.0 0.0 0.00 0.00 0.00 80 1016.5
20180821064327 80 159 0.0 0.0 0.00 0.00 0.00 80 1016.5
20180821063836 81 159 0.0 0.0 0.00 0.00 0.00 79 1016.5
20180821063324 81 159 0.0 0.0 0.00 0.00 0.00 79 1016.5
20180821062832 81 159 0.0 0.0 0.00 0.00 0.00 78 1016.5
20180821062319 81 159 0.0 0.0 0.00 0.00 0.00 78 1016.5
20180821061828 82 159 0.0 0.0 0.00 0.00 0.00 78 1016.5
20180821061335 82 159 0.0 0.0 0.00 0.00 0.00 77 1016.5
20180821060823 82 159 0.0 0.0 0.00 0.00 0.00 77 1016.5
20180821060318 82 159 0.0 0.0 0.00 0.00 0.00 77 1016.4
20180821055826 82 159 0.0 0.0 0.00 0.00 0.00 76 1016.3
20180821055334 82 159 0.0 5.0 0.00 0.00 0.00 76 1016.2
20180821054821 82 158 0.0 7.0 0.00 0.00 0.00 76 1016.1
20180821054329 83 158 0.0 7.0 0.00 0.00 0.00 75 1016.1
20180821053820 83 147 1.0 5.0 0.00 0.00 0.00 75 1016.1
20180821053329 83 148 0.0 5.0 0.00 0.00 0.00 75 1016.1
20180821052820 83 148 0.0 5.0 0.00 0.00 0.00 74 1016.2
20180821052331 83 147 2.0 9.0 0.00 0.00 0.00 74 1016.2
20180821051824 83 145 2.0 9.0 0.00 0.00 0.00 74 1016.1
20180821051331 83 143 0.0 7.0 0.00 0.00 0.00 73 1016.1
20180821050820 83 144 4.0 7.0 0.00 0.00 0.00 73 1015.9
20180821050330 84 169 3.0 8.0 0.00 0.00 0.00 72 1016.0
20180821045817 84 148 5.0 8.0 0.00 0.00 0.00 71 1015.8
20180821045325 84 148 0.0 5.0 0.00 0.00 0.00 71 1015.7
20180821044832 84 152 0.0 6.0 0.00 0.00 0.00 70 1015.6
20180821044320 84 158 0.0 8.0 0.00 0.00 0.00 69 1015.7
20180821043829 84 159 4.0 8.0 0.00 0.00 0.00 69 1015.6
20180821043321 85 160 0.0 6.0 0.00 0.00 0.00 68 1015.5
20180821042829 85 156 2.0 5.0 0.00 0.00 0.00 68 1015.4
20180821042317 85 156 1.0 7.0 0.00 0.00 0.00 68 1015.3
20180821041825 85 155 4.0 7.0 0.00 0.00 0.00 67 1015.3
20180821041333 86 157 0.0 8.0 0.00 0.00 0.00 67 1015.2
20180821040823 86 153 3.0 13.0 0.00 0.00 0.00 66 1015.3
20180821040333 86 163 2.0 13.0 0.00 0.00 0.00 65 1015.1
20180821035820 86 153 1.0 10.0 0.00 0.00 0.00 64 1015.1
20180821035331 86 164 0.0 11.0 0.00 0.00 0.00 64 1015.0
20180821034823 86 142 5.0 11.0 0.00 0.00 0.00 63 1015.0
20180821034331 87 170 3.0 10.0 0.00 0.00 0.00 62 1014.9
20180821033822 87 149 3.0 12.0 0.00 0.00 0.00 62 1014.9
20180821033331 87 165 6.0 12.0 0.00 0.00 0.00 62 1014.9
20180821032818 87 161 5.0 12.0 0.00 0.00 0.00 61 1014.7
20180821032329 87 166 2.0 14.0 0.00 0.00 0.00 61 1014.7
20180821031820 87 140 7.0 13.0 0.00 0.00 0.00 60 1014.7
20180821031328 88 194 2.0 11.0 0.00 0.00 0.00 60 1014.6
20180821030820 88 157 5.0 11.0 0.00 0.00 0.00 60 1014.5
20180821030329 88 192 4.0 14.0 0.00 0.00 0.00 60 1014.5
20180821025816 88 148 4.0 12.0 0.00 0.00 0.00 59 1014.3
20180821025324 88 149 5.0 13.0 0.00 0.00 0.00 59 1014.2
20180821024845 89 143 6.0 13.0 0.00 0.00 0.00 59 1014.1
20180821024320 89 150 3.0 14.0 0.00 0.00 0.00 59 1014.0
20180821023828 89 182 4.0 14.0 0.00 0.00 0.00 59 1014.0
20180821023317 89 153 6.0 10.0 0.00 0.00 0.00 59 1013.9
20180821022824 89 159 3.0 11.0 0.00 0.00 0.00 59 1013.8
20180821022318 89 145 1.0 11.0 0.00 0.00 0.00 59 1013.6
20180821021825 89 140 3.0 10.0 0.00 0.00 0.00 59 1013.6
20180821021333 90 157 1.0 9.0 0.00 0.00 0.00 58 1013.5
20180821020821 90 147 1.0 9.0 0.00 0.00 0.00 58 1013.5
20180821020330 90 172 3.0 10.0 0.00 0.00 0.00 58 1013.5
20180821015817 90 142 1.0 10.0 0.00 0.00 0.00 57 1013.5
20180821015325 90 136 4.0 9.0 0.00 0.00 0.00 57 1013.5
20180821014832 90 107 4.0 9.0 0.00 0.00 0.00 56 1013.4
20180821014321 90 158 1.0 9.0 0.00 0.00 0.00 55 1013.3
20180821013828 90 154 1.0 9.0 0.00 0.00 0.00 55 1013.3
20180821013320 90 162 0.0 9.0 0.00 0.00 0.00 54 1013.2
20180821012828 90 142 2.0 8.0 0.00 0.00 0.00 54 1013.1
20180821012336 90 157 2.0 9.0 0.00 0.00 0.00 52 1013.1
20180821011824 90 143 1.0 12.0 0.00 0.00 0.00 51 1012.9
20180821011331 91 156 6.0 11.0 0.00 0.00 0.00 51 1012.8
20180821010822 91 132 0.0 0.0 0.00 0.00 0.00 50 1012.6
20180821010332 92 132 0.0 0.0 0.00 0.00 0.00 50 1012.4
20180821005819 92 132 0.0 0.0 0.00 0.00 0.00 48 1012.4
20180821005327 93 132 0.0 0.0 0.00 0.00 0.00 48 1012.4
20180821004822 93 132 0.0 1.0 0.00 0.00 0.00 47 1012.4
20180821004330 94 132 0.0 6.0 0.00 0.00 0.00 46 1012.3
20180821003817 94 132 1.0 6.0 0.00 0.00 0.00 46 1012.2
20180821003327 94 130 0.0 4.0 0.00 0.00 0.00 46 1012.3
20180821002834 95 128 0.0 5.0 0.00 0.00 0.00 43 1012.4
20180821002322 95 129 0.0 8.0 0.00 0.00 0.00 44 1012.4
20180821001830 95 150 1.0 8.0 0.00 0.00 0.00 42 1012.3
20180821001317 95 158 3.0 8.0 0.00 0.00 0.00 43 1012.2
20180821000825 95 153 3.0 9.0 0.00 0.00 0.00 42 1012.2
20180821000318 95 139 2.0 9.0 0.00 0.00 0.00 42 1012.3
20180820235825 96 136 0.0 8.0 0.00 0.00 0.00 43 1012.3
20180820235335 96 144 3.0 8.0 0.00 0.00 0.00 41 1012.3
20180820234822 96 105 1.0 6.0 0.00 0.00 0.00 43 1012.4
20180820234330 97 137 3.0 9.0 0.00 0.00 0.00 40 1012.4
20180820233821 97 137 1.0 9.0 0.00 0.00 0.00 40 1012.4
20180820233330 98 157 2.0 11.0 0.00 0.00 0.00 40 1012.3
20180820232817 98 167 7.0 11.0 0.00 0.00 0.00 39 1012.2
20180820232325 98 167 7.0 10.0 0.00 0.00 0.00 40 1012.2
20180820231820 98 138 0.0 12.0 0.00 0.00 0.00 39 1012.1
20180820231328 98 160 8.0 12.0 0.00 0.00 0.00 39 1012.0
20180820230816 99 91 0.0 8.0 0.00 0.00 0.00 42 1012.0
20180820230328 99 159 3.0 9.0 0.00 0.00 0.00 39 1012.0
20180820225836 99 167 6.0 9.0 0.00 0.00 0.00 38 1012.1
20180820225324 99 221 1.0 11.0 0.00 0.00 0.00 39 1012.0
20180820224831 99 171 2.0 11.0 0.00 0.00 0.00 39 1012.0
20180820224319 99 165 3.0 12.0 0.00 0.00 0.00 38 1012.0
20180820223827 99 140 1.0 14.0 0.00 0.00 0.00 40 1012.0
20180820223323 99 163 6.0 14.0 0.00 0.00 0.00 37 1011.9
20180820222829 99 159 1.0 10.0 0.00 0.00 0.00 39 1011.8
20180820222317 99 161 4.0 10.0 0.00 0.00 0.00 38 1011.8
20180820221828 99 191 1.0 12.0 0.00 0.00 0.00 39 1011.8
20180820221316 99 201 2.0 12.0 0.00 0.00 0.00 37 1011.8
20180820220824 99 130 3.0 8.0 0.00 0.00 0.00 40 1011.9
20180820220333 99 162 5.0 8.0 0.00 0.00 0.00 36 1012.0
20180820215822 99 119 1.0 9.0 0.00 0.00 0.00 38 1012.0
20180820215316 99 206 6.0 9.0 0.00 0.00 0.00 39 1012.2
20180820214827 99 267 2.0 7.0 0.00 0.00 0.00 39 1012.1
20180820214317 99 161 1.0 5.0 0.00 0.00 0.00 40 1012.2
20180820213826 98 159 0.0 0.0 0.00 0.00 0.00 40 1012.2
20180820213336 98 159 0.0 7.0 0.00 0.00 0.00 39 1012.2
20180820212823 98 162 2.0 8.0 0.00 0.00 0.00 36 1012.4
20180820212331 98 160 4.0 9.0 0.00 0.00 0.00 37 1012.5
20180820211820 98 162 0.0 8.0 0.00 0.00 0.00 41 1012.5
20180820211328 98 170 0.0 3.0 0.00 0.00 0.00 39 1012.6
20180820210820 98 194 0.0 12.0 0.00 0.00 0.00 42 1012.7
20180820210333 99 151 1.0 12.0 0.00 0.00 0.00 39 1012.9
20180820205820 99 103 4.0 12.0 0.00 0.00 0.00 38 1012.9
20180820205328 99 121 0.0 13.0 0.00 0.00 0.00 40 1013.0
20180820204836 99 132 2.0 13.0 0.00 0.00 0.00 39 1013.1
20180820204324 100 146 3.0 14.0 0.00 0.00 0.00 38 1013.1
20180820203832 100 174 0.0 9.0 0.00 0.00 0.00 42 1013.2
20180820203323 99 221 5.0 12.0 0.00 0.00 0.00 40 1013.3
20180820202834 99 169 4.0 12.0 0.00 0.00 0.00 41 1013.4
20180820202326 99 109 0.0 9.0 0.00 0.00 0.00 41 1013.4
20180820201834 99 85 0.0 9.0 0.00 0.00 0.00 43 1013.4
20180820201322 99 144 2.0 8.0 0.00 0.00 0.00 43 1013.6
20180820200830 99 169 3.0 7.0 0.00 0.00 0.00 46 1013.6
20180820200319 99 159 0.0 8.0 0.00 0.00 0.00 43 1013.7
20180820195827 99 169 2.0 8.0 0.00 0.00 0.00 46 1013.7
20180820195335 99 163 0.0 8.0 0.00 0.00 0.00 45 1013.8
20180820194822 99 166 2.0 8.0 0.00 0.00 0.00 43 1013.9
20180820194330 99 124 2.0 8.0 0.00 0.00 0.00 45 1014.0
20180820193822 98 306 0.0 7.0 0.00 0.00 0.00 47 1014.0
20180820193331 98 242 0.0 7.0 0.00 0.00 0.00 46 1014.1
20180820192818 98 156 1.0 12.0 0.00 0.00 0.00 45 1014.1
20180820192326 98 218 2.0 12.0 0.00 0.00 0.00 44 1014.2